DW6927 Weather Reports


Display with metric or nautical units.
time (UTC)temp
F
wind
direction
speed
MPH
gust
MPH
rain 1hr
in
rain 24hr
in
rain mn
in
humidity
%
barometer
mb
20260902192554 91 0 0.0 0.0 0.00 0.00 0.00 62 1019.9
20260902192055 91 0 0.0 0.0 0.00 0.00 0.00 57 1019.9
20260902191557 92 0 0.0 0.0 0.00 0.00 0.00 59 1019.9
20260902191055 92 0 0.0 0.0 0.00 0.00 0.00 59 1020.1
20260902190555 92 0 0.0 0.0 0.00 0.00 0.00 58 1020.1
20260902190103 92 0 0.0 0.0 0.00 0.00 0.00 61 1020.1
20260902185557 92 0 0.0 0.0 0.00 0.00 0.00 60 1020.1
20260902185057 91 0 0.0 0.0 0.00 0.00 0.00 63 1020.2
20260902184557 91 0 0.0 0.0 0.00 0.00 0.00 61 1020.3
20260902184054 91 0 0.0 4.0 0.00 0.00 0.00 61 1020.4
20260902183557 91 0 0.0 4.0 0.00 0.00 0.00 58 1020.4
20260902183118 91 0 2.0 4.0 0.00 0.00 0.00 57 1020.3
20260902182553 91 0 0.0 2.0 0.00 0.00 0.00 63 1020.4
20260902182054 91 0 0.0 3.0 0.00 0.00 0.00 63 1020.4
20260902181601 91 0 0.0 4.0 0.00 0.00 0.00 62 1020.7
20260902181054 91 0 2.0 4.0 0.00 0.00 0.00 60 1020.6
20260902180554 91 101 0.0 5.0 0.00 0.00 0.00 63 1020.7
20260902180118 91 0 0.0 5.0 0.00 0.00 0.00 64 1020.4
20260902175554 91 267 0.0 2.0 0.00 0.00 0.00 63 1020.8
20260902175054 91 0 0.0 2.0 0.00 0.00 0.00 63 1020.7
20260902174609 91 0 0.0 2.0 0.00 0.00 0.00 65 1020.9
20260902174054 90 0 0.0 2.0 0.00 0.00 0.00 61 1020.9
20260902173554 90 43 0.0 2.0 0.00 0.00 0.00 63 1020.9
20260902173102 90 0 0.0 2.0 0.00 0.00 0.00 67 1021.0
20260902172554 90 199 0.0 2.0 0.00 0.00 0.00 66 1021.0
20260902172057 91 0 0.0 1.0 0.00 0.00 0.00 66 1021.1
20260902171601 91 0 0.0 1.0 0.00 0.00 0.00 63 1021.1
20260902171058 91 5 0.0 1.0 0.00 0.00 0.00 66 1021.3
20260902170554 91 0 0.0 1.0 0.00 0.00 0.00 67 1021.2
20260902170103 90 0 0.0 3.0 0.00 0.00 0.00 66 1021.3
20260902165555 90 0 0.0 3.0 0.00 0.00 0.00 66 1021.3
20260902165055 90 0 0.0 3.0 0.00 0.00 0.00 66 1021.5
20260902164602 90 89 0.0 3.0 0.00 0.00 0.00 67 1021.6
20260902164054 90 95 0.0 2.0 0.00 0.00 0.00 75 1021.6
20260902163554 89 0 0.0 1.0 0.00 0.00 0.00 72 1021.6
20260902163058 90 0 0.0 1.0 0.00 0.00 0.00 68 1021.8
20260902162554 90 0 0.0 1.0 0.00 0.00 0.00 68 1021.9
20260902162054 90 0 0.0 1.0 0.00 0.00 0.00 68 1021.9
20260902161606 90 0 0.0 2.0 0.00 0.00 0.00 73 1021.9
20260902161055 90 0 0.0 2.0 0.00 0.00 0.00 72 1022.0
20260902160554 89 0 0.0 2.0 0.00 0.00 0.00 71 1022.0
20260902160106 89 0 0.0 2.0 0.00 0.00 0.00 72 1022.0
20260902155554 89 242 0.0 2.0 0.00 0.00 0.00 68 1022.0
20260902155056 89 0 0.0 0.0 0.00 0.00 0.00 73 1022.0
20260902154556 89 0 0.0 0.0 0.00 0.00 0.00 71 1022.2
20260902154054 89 0 0.0 0.0 0.00 0.00 0.00 72 1022.1
20260902153555 89 0 0.0 0.0 0.00 0.00 0.00 73 1022.0
20260902153100 89 0 0.0 0.0 0.00 0.00 0.00 74 1022.1
20260902152556 88 0 0.0 0.0 0.00 0.00 0.00 76 1022.1
20260902152054 88 0 0.0 0.0 0.00 0.00 0.00 77 1022.0
20260902151602 87 0 0.0 0.0 0.00 0.00 0.00 77 1022.0
20260902151056 87 0 0.0 0.0 0.00 0.00 0.00 78 1022.1
20260902150554 86 0 0.0 0.0 0.00 0.00 0.00 78 1022.1
20260902145553 85 0 0.0 0.0 0.00 0.00 0.00 82 1022.0
20260902145055 85 0 0.0 0.0 0.00 0.00 0.00 82 1022.0
20260902144558 85 0 0.0 0.0 0.00 0.00 0.00 81 1022.0
20260902144053 85 0 0.0 2.0 0.00 0.00 0.00 81 1022.0
20260902143554 85 0 0.0 2.0 0.00 0.00 0.00 82 1021.9
20260902143108 84 0 0.0 1.0 0.00 0.00 0.00 83 1022.0
20260902142555 83 0 0.0 0.0 0.00 0.00 0.00 85 1022.0
20260902142054 83 0 0.0 1.0 0.00 0.00 0.00 85 1022.0
20260902141615 82 0 0.0 1.0 0.00 0.00 0.00 86 1022.0
20260902141055 82 0 0.0 0.0 0.00 0.00 0.00 86 1022.0
20260902140554 81 0 0.0 0.0 0.00 0.00 0.00 87 1021.9
20260902140103 80 0 0.0 0.0 0.00 0.00 0.00 88 1021.9
20260902135554 80 0 0.0 0.0 0.00 0.00 0.00 89 1022.0
20260902135054 79 0 0.0 0.0 0.00 0.00 0.00 89 1022.0
20260902134605 79 0 0.0 0.0 0.00 0.00 0.00 90 1022.0
20260902134054 78 0 0.0 0.0 0.00 0.00 0.00 91 1022.0
20260902133554 78 0 0.0 0.0 0.00 0.00 0.00 90 1022.0
20260902133105 78 0 0.0 0.0 0.00 0.00 0.00 91 1022.0
20260902132558 78 0 0.0 0.0 0.00 0.00 0.00 91 1022.0
20260902132054 77 0 0.0 0.0 0.00 0.00 0.00 93 1022.0
20260902131608 77 0 0.0 0.0 0.00 0.00 0.00 94 1022.0
20260902131054 76 0 0.0 0.0 0.00 0.00 0.00 96 1022.1
20260902130554 75 0 0.0 0.0 0.00 0.00 0.00 96 1022.1
20260902130104 74 0 0.0 0.0 0.00 0.00 0.00 97 1022.1
20260902125553 74 0 0.0 0.0 0.00 0.00 0.00 97 1022.0
20260902125054 73 0 0.0 0.0 0.00 0.00 0.00 98 1021.9
20260902124601 72 0 0.0 0.0 0.00 0.00 0.00 98 1021.9
20260902124054 72 0 0.0 0.0 0.00 0.00 0.00 98 1021.8
20260902123554 71 0 0.0 0.0 0.00 0.00 0.00 98 1021.8
20260902123114 70 0 0.0 0.0 0.00 0.00 0.00 98 1022.0
20260902122554 70 0 0.0 0.0 0.00 0.00 0.00 97 1021.9
20260902122053 69 0 0.0 0.0 0.00 0.00 0.00 97 1021.7
20260902121605 69 0 0.0 0.0 0.00 0.00 0.00 97 1021.7
20260902121054 69 0 0.0 0.0 0.00 0.00 0.00 97 1021.7
20260902120554 69 0 0.0 0.0 0.00 0.00 0.00 97 1021.5
20260902120100 69 0 0.0 0.0 0.00 0.00 0.00 97 1021.6
20260902115554 69 0 0.0 0.0 0.00 0.00 0.00 97 1021.5
20260902115057 69 0 0.0 0.0 0.00 0.00 0.00 97 1021.6
20260902114557 69 0 0.0 0.0 0.00 0.00 0.00 97 1021.6
20260902114055 69 0 0.0 0.0 0.00 0.00 0.00 97 1021.4
20260902113554 69 0 0.0 0.0 0.00 0.00 0.00 97 1021.4
20260902113114 69 0 0.0 0.0 0.00 0.00 0.00 97 1021.3
20260902112554 69 0 0.0 0.0 0.00 0.00 0.00 96 1021.3
20260902112054 69 0 0.0 0.0 0.00 0.00 0.00 96 1021.1
20260902111603 69 0 0.0 0.0 0.00 0.00 0.00 96 1021.1
20260902111054 69 0 0.0 0.0 0.00 0.00 0.00 96 1021.3
20260902110557 69 0 0.0 0.0 0.00 0.00 0.00 96 1021.1
20260902110059 69 0 0.0 0.0 0.00 0.00 0.00 96 1021.0
20260902105555 69 0 0.0 0.0 0.00 0.00 0.00 96 1021.0
20260902105053 69 0 0.0 0.0 0.00 0.00 0.00 96 1020.9
20260902104557 69 0 0.0 0.0 0.00 0.00 0.00 96 1020.8
20260902104054 69 0 0.0 0.0 0.00 0.00 0.00 96 1020.9
20260902103554 69 0 0.0 0.0 0.00 0.00 0.00 96 1020.9
20260902103056 69 0 0.0 0.0 0.00 0.00 0.00 96 1020.9
20260902102556 69 0 0.0 0.0 0.00 0.00 0.00 96 1020.8
20260902102054 69 0 0.0 0.0 0.00 0.00 0.00 96 1020.8
20260902101620 69 0 0.0 0.0 0.00 0.00 0.00 96 1020.7
20260902101054 69 0 0.0 0.0 0.00 0.00 0.00 96 1020.7
20260902100554 69 0 0.0 0.0 0.00 0.00 0.00 96 1020.7
20260902100100 69 0 0.0 0.0 0.00 0.00 0.00 96 1020.7
20260902095556 70 0 0.0 0.0 0.00 0.00 0.00 96 1020.7
20260902095053 70 0 0.0 0.0 0.00 0.00 0.00 96 1020.6
20260902094557 70 0 0.0 0.0 0.00 0.00 0.00 96 1020.6
20260902094054 70 0 0.0 0.0 0.00 0.00 0.00 96 1020.7
20260902093555 70 0 0.0 0.0 0.00 0.00 0.00 96 1020.7
20260902093055 70 0 0.0 0.0 0.00 0.00 0.00 96 1020.7
20260902092555 70 0 0.0 0.0 0.00 0.00 0.00 96 1020.6
20260902092054 70 0 0.0 0.0 0.00 0.00 0.00 96 1020.6
20260902091600 70 0 0.0 0.0 0.00 0.00 0.00 96 1020.5
20260902091054 69 0 0.0 0.0 0.00 0.00 0.00 96 1020.4
20260902090556 70 0 0.0 0.0 0.00 0.00 0.00 96 1020.3
20260902090107 70 0 0.0 0.0 0.00 0.00 0.00 96 1020.2
20260902085556 69 0 0.0 0.0 0.00 0.00 0.00 96 1020.3
20260902085053 69 0 0.0 0.0 0.00 0.00 0.00 95 1020.3
20260902084600 70 0 0.0 0.0 0.00 0.00 0.00 95 1020.2
20260902084056 70 0 0.0 0.0 0.00 0.00 0.00 95 1020.1
20260902083553 70 0 0.0 0.0 0.00 0.00 0.00 95 1020.2
20260902083110 70 0 0.0 0.0 0.00 0.00 0.00 95 1020.0
20260902082555 70 0 0.0 0.0 0.00 0.00 0.00 95 1019.9
20260902082053 70 0 0.0 0.0 0.00 0.00 0.00 95 1019.9
20260902081604 70 0 0.0 0.0 0.00 0.00 0.00 95 1020.2
20260902081055 70 0 0.0 0.0 0.00 0.00 0.00 95 1020.1
20260902080554 70 0 0.0 0.0 0.00 0.00 0.00 95 1020.0
20260902080111 71 0 0.0 0.0 0.00 0.00 0.00 95 1020.1
20260902075553 71 0 0.0 0.0 0.00 0.00 0.00 95 1020.1
20260902075053 71 0 0.0 0.0 0.00 0.00 0.00 95 1020.2
20260902074606 71 0 0.0 0.0 0.00 0.00 0.00 95 1020.2
20260902074054 71 0 0.0 0.0 0.00 0.00 0.00 95 1020.2
20260902073553 71 0 0.0 0.0 0.00 0.00 0.00 95 1020.1
20260902073057 71 0 0.0 0.0 0.00 0.00 0.00 95 1020.3
20260902072553 71 0 0.0 0.0 0.00 0.00 0.00 95 1020.2
20260902072055 71 0 0.0 0.0 0.00 0.00 0.00 95 1020.2
20260902071603 71 0 0.0 0.0 0.00 0.00 0.00 95 1020.4
20260902071050 71 0 0.0 0.0 0.00 0.00 0.00 95 1020.4
20260902070551 71 0 0.0 0.0 0.00 0.00 0.00 95 1020.3
20260902070105 71 0 0.0 0.0 0.00 0.00 0.00 95 1020.4
20260902065551 71 0 0.0 0.0 0.00 0.00 0.00 94 1020.4
20260902065053 71 0 0.0 0.0 0.00 0.00 0.00 95 1020.4
20260902064605 71 0 0.0 0.0 0.00 0.00 0.00 95 1020.3
20260902064050 71 0 0.0 0.0 0.00 0.00 0.00 95 1020.2
20260902063550 71 0 0.0 0.0 0.00 0.00 0.00 95 1020.1
20260902063055 71 0 0.0 0.0 0.00 0.00 0.00 94 1020.2
20260902062551 71 0 0.0 0.0 0.00 0.00 0.00 94 1020.1
20260902062051 71 0 0.0 0.0 0.00 0.00 0.00 94 1020.3
20260902061624 71 0 0.0 0.0 0.00 0.00 0.00 94 1020.1
20260902061051 71 0 0.0 0.0 0.00 0.00 0.00 94 1020.2
20260902060550 71 0 0.0 0.0 0.00 0.00 0.00 94 1020.3
20260902060104 71 0 0.0 0.0 0.00 0.00 0.00 94 1020.3
20260902055550 72 0 0.0 0.0 0.00 0.00 0.00 94 1020.4
20260902055051 72 0 0.0 0.0 0.00 0.00 0.00 93 1020.3
20260902054606 72 0 0.0 0.0 0.00 0.00 0.00 94 1020.4
20260902054050 72 0 0.0 0.0 0.00 0.00 0.00 94 1020.4
20260902053553 72 0 0.0 0.0 0.00 0.00 0.00 94 1020.4
20260902053105 72 0 0.0 0.0 0.00 0.00 0.00 93 1020.4
20260902052552 72 0 0.0 0.0 0.00 0.00 0.00 93 1020.3
20260902052052 72 0 0.0 0.0 0.00 0.00 0.00 93 1020.4
20260902051603 72 0 0.0 0.0 0.00 0.00 0.00 93 1020.3
20260902051052 72 0 0.0 0.0 0.00 0.00 0.00 93 1020.3
20260902050551 72 0 0.0 0.0 0.00 0.00 0.00 93 1020.4
20260902050107 72 0 0.0 0.0 0.00 0.00 0.00 93 1020.4
20260902045554 72 0 0.0 0.0 0.00 0.00 0.00 92 1020.3
20260902045050 73 0 0.0 0.0 0.00 0.00 0.00 93 1020.4
20260902044613 73 0 0.0 0.0 0.00 0.00 0.00 92 1020.3
20260902044052 73 0 0.0 0.0 0.00 0.00 0.00 92 1020.4
20260902043553 73 0 0.0 0.0 0.00 0.00 0.00 92 1020.3
20260902043103 73 0 0.0 0.0 0.00 0.00 0.00 92 1020.5
20260902042550 73 0 0.0 0.0 0.00 0.00 0.00 92 1020.6
20260902042051 73 0 0.0 0.0 0.00 0.00 0.00 91 1020.7
20260902041609 73 0 0.0 0.0 0.00 0.00 0.00 91 1020.6
20260902041053 73 0 0.0 0.0 0.00 0.00 0.00 91 1020.5
20260902040551 74 0 0.0 0.0 0.00 0.00 0.00 91 1020.5
20260902035550 74 0 0.0 0.0 0.00 0.00 0.00 91 1020.4
20260902035051 74 0 0.0 0.0 0.00 0.00 0.00 91 1020.3
20260902034618 74 0 0.0 0.0 0.00 0.00 0.00 91 1020.3
20260902034050 74 0 0.0 0.0 0.00 0.00 0.00 91 1020.2
20260902033550 74 0 0.0 0.0 0.00 0.00 0.00 90 1020.2
20260902033112 74 0 0.0 0.0 0.00 0.00 0.00 90 1020.3
20260902032552 74 0 0.0 0.0 0.00 0.00 0.00 90 1020.3
20260902032051 74 0 0.0 0.0 0.00 0.00 0.00 90 1020.3
20260902031607 74 0 0.0 0.0 0.00 0.00 0.00 89 1020.5
20260902031054 74 0 0.0 0.0 0.00 0.00 0.00 89 1020.4
20260902030551 74 0 0.0 0.0 0.00 0.00 0.00 89 1020.5
20260902030057 75 0 0.0 0.0 0.00 0.00 0.00 89 1020.5
20260902025552 75 0 0.0 0.0 0.00 0.00 0.00 88 1020.5
20260902025053 75 0 0.0 0.0 0.00 0.00 0.00 88 1020.4
20260902024607 75 0 0.0 0.0 0.00 0.00 0.00 88 1020.5
20260902024050 75 0 0.0 0.0 0.00 0.00 0.00 88 1020.4
20260902023550 75 0 0.0 0.0 0.00 0.00 0.00 88 1020.5
20260902023115 75 0 0.0 0.0 0.00 0.00 0.00 88 1020.5
20260902022549 75 0 0.0 0.0 0.00 0.00 0.00 87 1020.4
20260902022051 75 0 0.0 0.0 0.00 0.00 0.00 86 1020.3
20260902021618 75 0 0.0 0.0 0.00 0.00 0.00 86 1020.4
20260902021051 76 0 0.0 0.0 0.00 0.00 0.00 86 1020.3
20260902020551 76 0 0.0 0.0 0.00 0.00 0.00 86 1020.3
20260902015550 76 0 0.0 0.0 0.00 0.00 0.00 85 1020.2
20260902015050 77 0 0.0 0.0 0.00 0.00 0.00 85 1020.1
20260902014602 77 0 0.0 0.0 0.00 0.00 0.00 85 1020.1
20260902014052 77 0 0.0 0.0 0.00 0.00 0.00 85 1020.1
20260902013550 77 0 0.0 0.0 0.00 0.00 0.00 85 1020.0
20260902013058 77 0 0.0 0.0 0.00 0.00 0.00 83 1019.9
20260902012550 77 0 0.0 0.0 0.00 0.00 0.00 84 1019.9
20260902012051 77 0 0.0 0.0 0.00 0.00 0.00 84 1019.8
20260902011558 77 0 0.0 0.0 0.00 0.00 0.00 83 1019.8
20260902011051 78 0 0.0 0.0 0.00 0.00 0.00 83 1019.8
20260902010553 78 0 0.0 0.0 0.00 0.00 0.00 83 1019.7
20260902010101 78 0 0.0 0.0 0.00 0.00 0.00 83 1019.6
20260902005551 78 0 0.0 0.0 0.00 0.00 0.00 83 1019.6
20260902005051 78 0 0.0 0.0 0.00 0.00 0.00 83 1019.8
20260902004558 78 0 0.0 0.0 0.00 0.00 0.00 83 1019.8
20260902004053 78 0 0.0 0.0 0.00 0.00 0.00 82 1019.6
20260902003550 78 0 0.0 0.0 0.00 0.00 0.00 82 1019.8
20260902003106 78 0 0.0 0.0 0.00 0.00 0.00 82 1019.5
20260902002550 79 0 0.0 0.0 0.00 0.00 0.00 82 1019.6
20260902002050 79 0 0.0 0.0 0.00 0.00 0.00 82 1019.6
20260902001558 79 0 0.0 0.0 0.00 0.00 0.00 82 1019.6
20260902001050 79 0 0.0 0.0 0.00 0.00 0.00 82 1019.6
20260902000551 79 0 0.0 0.0 0.00 0.00 0.00 82 1019.5
20260901235551 80 0 0.0 0.0 0.00 0.00 0.00 82 1019.7
20260901235052 80 0 0.0 0.0 0.00 0.00 0.00 82 1019.7
20260901234616 80 0 0.0 0.0 0.00 0.00 0.00 82 1019.6
20260901234050 80 0 0.0 0.0 0.00 0.00 0.00 81 1019.7
20260901233551 81 0 0.0 0.0 0.00 0.00 0.00 81 1019.6
20260901233055 81 0 0.0 0.0 0.00 0.00 0.00 81 1019.7
20260901232550 81 0 0.0 0.0 0.00 0.00 0.00 81 1019.7
20260901232054 81 0 0.0 1.0 0.00 0.00 0.00 80 1019.8
20260901231559 81 0 0.0 1.0 0.00 0.00 0.00 80 1019.7
20260901231050 81 0 0.0 2.0 0.00 0.00 0.00 80 1019.8
20260901230551 82 0 0.0 2.0 0.00 0.00 0.00 79 1019.7
20260901230136 82 196 0.0 1.0 0.00 0.00 0.00 79 1019.7
20260901225553 82 0 0.0 1.0 0.00 0.00 0.00 79 1019.7
20260901225050 82 196 0.0 2.0 0.00 0.00 0.00 78 1019.7
20260901224556 82 196 0.0 2.0 0.00 0.00 0.00 78 1019.6
20260901224050 82 196 1.0 2.0 0.00 0.00 0.00 78 1019.6
20260901223550 82 0 0.0 1.0 0.00 0.00 0.00 77 1019.6
20260901223113 82 0 0.0 2.0 0.00 0.00 0.00 77 1019.6
20260901222551 83 0 0.0 2.0 0.00 0.00 0.00 77 1019.5
20260901222051 83 0 0.0 2.0 0.00 0.00 0.00 76 1019.4
20260901221601 83 196 1.0 2.0 0.00 0.00 0.00 76 1019.6
20260901221051 83 0 0.0 1.0 0.00 0.00 0.00 76 1019.5
20260901220550 83 0 0.0 0.0 0.00 0.00 0.00 74 1019.5
20260901215553 84 0 0.0 0.0 0.00 0.00 0.00 74 1019.5
20260901215053 84 0 0.0 0.0 0.00 0.00 0.00 73 1019.5
20260901214556 84 0 0.0 2.0 0.00 0.00 0.00 72 1019.4
20260901214053 85 0 0.0 2.0 0.00 0.00 0.00 71 1019.5
20260901213553 85 184 0.0 2.0 0.00 0.00 0.00 72 1019.5
20260901213105 85 0 0.0 2.0 0.00 0.00 0.00 71 1019.5
20260901212553 86 0 0.0 2.0 0.00 0.00 0.00 71 1019.5
20260901212053 86 0 0.0 0.0 0.00 0.00 0.00 70 1019.6
20260901211559 87 0 0.0 0.0 0.00 0.00 0.00 70 1019.3
20260901211052 87 0 0.0 0.0 0.00 0.00 0.00 68 1019.5
20260901210554 87 0 0.0 0.0 0.00 0.00 0.00 68 1019.6
20260901210101 87 0 0.0 0.0 0.00 0.00 0.00 66 1019.6
20260901205557 87 0 0.0 0.0 0.00 0.00 0.00 70 1019.8
20260901205054 88 0 0.0 0.0 0.00 0.00 0.00 69 1019.8
20260901204555 88 0 0.0 0.0 0.00 0.00 0.00 66 1019.7
20260901204053 88 0 0.0 0.0 0.00 0.00 0.00 66 1019.8
20260901203553 88 0 0.0 0.0 0.00 0.00 0.00 67 1019.7
20260901203117 88 0 0.0 0.0 0.00 0.00 0.00 67 1019.9
20260901202552 89 0 0.0 0.0 0.00 0.00 0.00 62 1020.1
20260901202052 89 0 0.0 0.0 0.00 0.00 0.00 65 1020.0
20260901201604 89 0 0.0 0.0 0.00 0.00 0.00 64 1020.1
20260901201053 89 0 0.0 0.0 0.00 0.00 0.00 65 1020.0
20260901200552 89 0 0.0 0.0 0.00 0.00 0.00 64 1020.0
20260901200105 89 0 0.0 0.0 0.00 0.00 0.00 64 1020.1
20260901195552 89 0 0.0 0.0 0.00 0.00 0.00 65 1020.2
20260901195056 89 0 0.0 0.0 0.00 0.00 0.00 67 1020.2
20260901194605 89 0 0.0 0.0 0.00 0.00 0.00 68 1020.3
20260901194054 88 0 0.0 0.0 0.00 0.00 0.00 65 1020.3
20260901193554 88 0 0.0 0.0 0.00 0.00 0.00 65 1020.4
20260901193102 89 0 0.0 0.0 0.00 0.00 0.00 68 1020.5